Location: ??
(35.5653°N, 139.6194°E)
Time: 00:49:33
(UTC+00:00)

Meteor PRIRODA - Pass Details

Date: 20 November 2019
Orbit: 490 x 512 km, 97.5° (Epoch: 05 December)

Event Time Altitude Azimuth Distance (km) Brightness Sun altitude
Rises 19:49:06 0° 5° (N) 2,585 7.2 -18.9°
Reaches altitude 10° 19:51:13 10° 360° (N) 1,695 6.2 -18.4°
Maximum altitude 19:54:45 49° 285° (WNW) 643 3.7 -17.7°
Drops below altitude 10° 19:58:14 10° 210° (SSW) 1,676 6.1 -17.0°
Sets 20:00:19 0° 204° (SSW) 2,552 7.1 -16.6°
